Content
SEND FEEDBACK

Daily
Averages
Monthly
Summary
Philippines

PUNTA ENGANA, PHILIPPINES


Home > Asia > Philippines
Elevation: 79 feet     Latitude: 10 18N     Longitude: 123 58E

WEATHER
 
SELECT A DAY
Number of Records: 155,233;   Date Range: 2/21/97 - 8/12/14
 
SHARE

PRINT THIS DATA

[ ← Previous Day ]
WEATHER ALMANAC - JANUARY 30, 2013
[ Next Day → ]
[ °C ]   °F
Weather ElementAverageHighLow
Temperature77.6 °F84 °F (2:00 pm)75.2 °F (1:00 pm)
Dewpoint73.5 °F78 °F (2:00 pm)71.6 °F (5:00 pm)
Humidity86.6 %94 % (1:00 pm)76 % (2:00 pm)
Barometer29.94 in30.01 in (11:00 pm)29.89 in (2:00 am)
Wind Speed14 mph25.3 mph (10:00 am)
Wind Gust25.3 mph (8:00 am)
Weather ElementAverage
Visibility7.7 mi
Wind DirectionSE (132.6 °)

Weather ElementTotal
Precipitation---
Cooling Degree Days14.6 (Base 65)
Growing Degree Days29.6 (Base 50)
Averaged from 31 records on January 30, 2013
WEATHER CONDITIONS BREAKOUT
WIND DIRECTION BREAKOUT
WEATHER BY HOUR - JANUARY 30, 2013
[ °C ]   °F
Local TimeTemperatureDewpointHumidityBarometerVisibilityWind DirectionWind SpeedGust SpeedPrecipitationEventsConditions
1:00 AM78.8 °F73.4 °F83 %29.92 in6.2 miNorth (10°)18.4 mphMostly Cloudy
2:00 AM77.0 °F74.0 °F90 %29.92 in11.0 miNE (40°)6.7 mphScattered Clouds
2:00 AM77.0 °F73.4 °F89 %29.89 in6.2 miNNE (20°)13.8 mphMostly Cloudy
3:00 AM77.0 °F73.4 °F89 %29.89 in6.2 miNE (40°)13.8 mphMostly Cloudy
4:00 AM77.0 °F73.4 °F89 %29.89 in6.2 miNE (40°)13.8 mphScattered Clouds
5:00 AM77.0 °F74.0 °F90 %29.93 in11.0 miNE (40°)4.5 mphPartly Cloudy
5:00 AM77.0 °F73.4 °F89 %29.89 in6.2 miNNE (20°)13.8 mphMostly Cloudy
6:00 AM77.0 °F73.4 °F89 %29.89 in6.2 miNorth (360°)16.1 mphOvercast
7:00 AM77.0 °F73.4 °F89 %29.92 in5.0 miNorth (350°)17.3 mphMostly Cloudy
8:00 AM78.0 °F74.0 °F86 %29.97 in12.0 miNE (40°)6.7 mphOvercast
8:00 AM77.0 °F73.4 °F89 %29.95 in6.2 miNorth (350°)18.4 mph25.3 mphOvercast
9:00 AM78.8 °F73.4 °F83 %29.95 in6.2 miNorth (360°)20.7 mphOvercast
10:00 AM80.6 °F73.4 °F79 %29.95 in6.2 miNorth (360°)25.3 mphOvercast
11:00 AM82.0 °F76.0 °F78 %29.99 in19.0 miNE (40°)6.7 mphOvercast
11:00 AM78.8 °F75.2 °F89 %29.95 in5.0 miNorth (10°)25.3 mphRainLight Rain
12:00 PM80.6 °F75.2 °F84 %29.95 in5.6 miNorth (10°)23.0 mphRainLight Rain
1:00 PM75.2 °F73.4 °F94 %29.95 in4.3 miNorth (10°)20.7 mphRainLight Rain
2:00 PM84.0 °F78.0 °F76 %29.95 in19.0 miNorth6.7 mphOvercast
2:00 PM77.0 °F73.4 °F89 %29.92 in6.2 miNorth (10°)20.7 mphOvercast
3:00 PM77.0 °F73.4 °F89 %29.92 in5.0 miNorth (10°)16.1 mphRainLight Rain
4:00 PM77.0 °F73.4 °F89 %29.92 in5.0 miNorth (360°)16.1 mphRainLight Rain
5:00 PM80.0 °F75.0 °F82 %29.95 in12.0 miNE (40°)6.7 mphOvercast
5:00 PM77.0 °F71.6 °F83 %29.92 in6.2 miNorth (350°)16.1 mphOvercast
6:00 PM77.0 °F71.6 °F83 %29.95 in5.0 miNorth (360°)12.7 mphRainLight Rain
7:00 PM75.2 °F71.6 °F89 %29.95 in5.0 miNorth (360°)6.9 mphRainLight Rain
8:00 PM78.0 °F74.0 °F83 %29.99 in11.0 miENE (70°)4.5 mphOvercast
8:00 PM75.2 °F71.6 °F89 %29.95 in6.2 miNNE (20°)18.4 mphOvercast
9:00 PM75.2 °F71.6 °F89 %29.98 in6.2 miNNE (20°)16.1 mphOvercast
10:00 PM75.2 °F71.6 °F89 %29.98 in6.2 miNorth (10°)16.1 mphMostly Cloudy
11:00 PM77.0 °F74.0 °F88 %30.01 in11.0 miNE (40°)4.5 mphRainLight Rain
11:00 PM75.2 °F71.6 °F89 %29.98 in6.2 miNorth (360°)6.9 mphMostly Cloudy
Hourly data recorded from RPVM, located miles away from Punta Engana, Philippines







STORIES FROM OUR PARTNERS